Time,TemperatureF,DewpointF,PressureIn,WindDirection,WindDirectionDegrees,WindSpeedMPH,WindSpeedGustMPH,Humidity,HourlyPrecipIn,Conditions,Clouds,dailyrainin,SolarRadiationWatts/m^2,SoftwareType,DateUTC
2013-06-12 00:01:00,64.3,60.9,29.95,WSW,252,0.0,5.0,89,0.00,,,0.00,0,HR-IXP-WINDi_r2_v1.2,2013-06-12 07:01:00,
2013-06-12 00:07:00,64.3,60.9,29.95,SW,232,1.0,5.0,89,0.00,,,0.00,0,HR-IXP-WINDi_r2_v1.2,2013-06-12 07:07:00,
2013-06-12 00:12:00,64.3,60.9,29.95,West,269,0.0,5.0,89,0.00,,,0.00,0,HR-IXP-WINDi_r2_v1.2,2013-06-12 07:12:00,
2013-06-12 00:17:00,64.4,61.0,29.95,SSW,195,2.0,4.0,89,0.00,,,0.00,0,HR-IXP-WINDi_r2_v1.2,2013-06-12 07:17:00,
2013-06-12 00:22:00,64.4,61.0,29.95,WSW,254,1.0,4.0,89,0.00,,,0.00,0,HR-IXP-WINDi_r2_v1.2,2013-06-12 07:22:00,
2013-06-12 00:29:00,64.3,60.6,29.95,SW,222,0.0,5.0,88,0.00,,,0.00,0,HR-IXP-WINDi_r2_v1.2,2013-06-12 07:29:00,
2013-06-12 00:34:00,64.3,60.9,29.95,SSW,205,0.0,5.0,89,0.00,,,0.00,0,HR-IXP-WINDi_r2_v1.2,2013-06-12 07:34:00,
2013-06-12 00:39:00,64.3,60.6,29.95,WSW,257,2.0,4.0,88,0.00,,,0.00,0,HR-IXP-WINDi_r2_v1.2,2013-06-12 07:39:00,
2013-06-12 00:44:00,64.4,60.7,29.95,WSW,255,0.0,4.0,88,0.00,,,0.00,0,HR-IXP-WINDi_r2_v1.2,2013-06-12 07:44:00,
2013-06-12 00:50:00,64.4,61.0,29.95,SW,215,0.0,4.0,89,0.00,,,0.00,0,HR-IXP-WINDi_r2_v1.2,2013-06-12 07:50:00,
2013-06-12 00:55:00,64.4,60.7,29.95,SW,216,1.0,4.0,88,0.00,,,0.00,0,HR-IXP-WINDi_r2_v1.2,2013-06-12 07:55:00,
2013-06-12 01:00:00,64.4,60.7,29.95,SW,227,0.0,4.0,88,0.00,,,0.00,0,HR-IXP-WINDi_r2_v1.2,2013-06-12 08:00:00,
2013-06-12 01:05:00,64.4,61.0,29.95,SW,226,1.0,4.0,89,0.00,,,0.00,0,HR-IXP-WINDi_r2_v1.2,2013-06-12 08:05:00,
2013-06-12 01:11:00,64.5,61.1,29.95,SW,225,0.0,4.0,89,0.00,,,0.00,0,HR-IXP-WINDi_r2_v1.2,2013-06-12 08:11:00,
2013-06-12 01:16:00,64.5,61.1,29.95,SW,217,2.0,3.0,89,0.00,,,0.00,0,HR-IXP-WINDi_r2_v1.2,2013-06-12 08:16:00,
2013-06-12 01:21:00,64.5,60.8,29.95,SW,217,2.0,3.0,88,0.00,,,0.00,0,HR-IXP-WINDi_r2_v1.2,2013-06-12 08:21:00,
2013-06-12 01:27:00,64.5,60.8,29.95,SW,217,1.0,2.0,88,0.00,,,0.00,0,HR-IXP-WINDi_r2_v1.2,2013-06-12 08:27:00,
2013-06-12 01:32:00,64.4,60.7,29.95,SW,217,0.0,2.0,88,0.00,,,0.00,0,HR-IXP-WINDi_r2_v1.2,2013-06-12 08:32:00,
2013-06-12 01:37:00,64.5,60.8,29.95,WSW,252,2.0,3.0,88,0.00,,,0.00,0,HR-IXP-WINDi_r2_v1.2,2013-06-12 08:37:00,
2013-06-12 01:42:00,64.4,60.7,29.95,WSW,252,0.0,3.0,88,0.00,,,0.00,0,HR-IXP-WINDi_r2_v1.2,2013-06-12 08:42:00,
2013-06-12 01:47:00,64.4,61.0,29.95,WSW,252,1.0,3.0,89,0.00,,,0.00,0,HR-IXP-WINDi_r2_v1.2,2013-06-12 08:47:00,
2013-06-12 01:52:00,64.4,61.0,29.95,WSW,244,1.0,3.0,89,0.00,,,0.00,0,HR-IXP-WINDi_r2_v1.2,2013-06-12 08:52:00,
2013-06-12 01:57:00,64.4,61.0,29.95,WSW,244,2.0,3.0,89,0.00,,,0.00,0,HR-IXP-WINDi_r2_v1.2,2013-06-12 08:57:00,
2013-06-12 02:03:00,64.4,61.0,29.94,WSW,244,0.0,3.0,89,0.00,,,0.00,0,HR-IXP-WINDi_r2_v1.2,2013-06-12 09:03:00,
2013-06-12 02:08:00,64.4,61.0,29.94,WSW,244,1.0,3.0,89,0.00,,,0.00,0,HR-IXP-WINDi_r2_v1.2,2013-06-12 09:08:00,
2013-06-12 02:13:00,64.4,61.0,29.94,WSW,244,0.0,3.0,89,0.00,,,0.00,0,HR-IXP-WINDi_r2_v1.2,2013-06-12 09:13:00,
2013-06-12 02:18:00,64.4,61.0,29.94,WSW,244,0.0,2.0,89,0.00,,,0.00,0,HR-IXP-WINDi_r2_v1.2,2013-06-12 09:18:00,
2013-06-12 02:24:00,64.4,61.0,29.94,WSW,244,0.0,2.0,89,0.00,,,0.00,0,HR-IXP-WINDi_r2_v1.2,2013-06-12 09:24:00,
2013-06-12 02:29:00,64.4,61.0,29.94,WSW,244,1.0,2.0,89,0.00,,,0.00,0,HR-IXP-WINDi_r2_v1.2,2013-06-12 09:29:00,
2013-06-12 02:34:00,64.3,60.9,29.94,WSW,244,1.0,3.0,89,0.00,,,0.00,0,HR-IXP-WINDi_r2_v1.2,2013-06-12 09:34:00,
2013-06-12 02:39:00,64.3,60.9,29.94,WSW,242,0.0,3.0,89,0.00,,,0.00,0,HR-IXP-WINDi_r2_v1.2,2013-06-12 09:39:00,
2013-06-12 02:45:00,64.2,61.1,29.94,WSW,241,0.0,3.0,90,0.00,,,0.00,0,HR-IXP-WINDi_r2_v1.2,2013-06-12 09:45:00,
2013-06-12 02:50:00,64.4,61.3,29.94,WSW,241,0.0,3.0,90,0.00,,,0.00,0,HR-IXP-WINDi_r2_v1.2,2013-06-12 09:50:00,
2013-06-12 02:55:00,64.3,61.2,29.94,WSW,241,1.0,2.0,90,0.00,,,0.00,0,HR-IXP-WINDi_r2_v1.2,2013-06-12 09:55:00,
2013-06-12 03:00:00,64.2,60.8,29.94,WSW,239,0.0,3.0,89,0.00,,,0.00,0,HR-IXP-WINDi_r2_v1.2,2013-06-12 10:00:00,
2013-06-12 03:05:00,64.2,61.1,29.94,WSW,239,0.0,3.0,90,0.00,,,0.00,0,HR-IXP-WINDi_r2_v1.2,2013-06-12 10:05:00,
2013-06-12 03:11:00,64.1,61.0,29.94,WSW,239,1.0,2.0,90,0.00,,,0.00,0,HR-IXP-WINDi_r2_v1.2,2013-06-12 10:11:00,
2013-06-12 03:16:00,64.2,61.1,29.94,South,190,1.0,2.0,90,0.00,,,0.00,0,HR-IXP-WINDi_r2_v1.2,2013-06-12 10:16:00,
2013-06-12 03:21:00,64.2,61.1,29.94,South,190,1.0,2.0,90,0.00,,,0.00,0,HR-IXP-WINDi_r2_v1.2,2013-06-12 10:21:00,
2013-06-12 03:26:00,64.2,61.1,29.94,South,190,0.0,2.0,90,0.00,,,0.00,0,HR-IXP-WINDi_r2_v1.2,2013-06-12 10:26:00,
2013-06-12 03:31:00,64.3,60.9,29.94,SSE,167,2.0,2.0,89,0.00,,,0.00,0,HR-IXP-WINDi_r2_v1.2,2013-06-12 10:31:00,
2013-06-12 03:36:00,64.2,60.8,29.94,SSE,167,0.0,2.0,89,0.00,,,0.00,0,HR-IXP-WINDi_r2_v1.2,2013-06-12 10:36:00,
2013-06-12 03:41:00,64.2,60.8,29.94,SSE,167,2.0,2.0,89,0.00,,,0.00,0,HR-IXP-WINDi_r2_v1.2,2013-06-12 10:41:00,
2013-06-12 03:46:00,64.3,60.9,29.94,SSE,167,0.0,2.0,89,0.00,,,0.00,0,HR-IXP-WINDi_r2_v1.2,2013-06-12 10:46:00,
2013-06-12 03:51:00,64.3,60.9,29.94,SSE,167,0.0,2.0,89,0.00,,,0.00,0,HR-IXP-WINDi_r2_v1.2,2013-06-12 10:51:00,
2013-06-12 03:57:00,64.4,61.0,29.94,SE,146,0.0,3.0,89,0.00,,,0.00,0,HR-IXP-WINDi_r2_v1.2,2013-06-12 10:57:00,
2013-06-12 04:02:00,64.3,60.6,29.94,South,188,0.0,3.0,88,0.00,,,0.00,0,HR-IXP-WINDi_r2_v1.2,2013-06-12 11:02:00,
2013-06-12 04:07:00,64.3,60.9,29.94,SSW,200,2.0,4.0,89,0.00,,,0.00,0,HR-IXP-WINDi_r2_v1.2,2013-06-12 11:07:00,
2013-06-12 04:12:00,64.2,60.8,29.94,SSW,207,0.0,4.0,89,0.00,,,0.00,0,HR-IXP-WINDi_r2_v1.2,2013-06-12 11:12:00,
2013-06-12 04:17:00,64.2,60.8,29.93,SSW,207,1.0,3.0,89,0.00,,,0.00,0,HR-IXP-WINDi_r2_v1.2,2013-06-12 11:17:00,
2013-06-12 04:22:00,64.3,60.9,29.94,SSW,202,2.0,3.0,89,0.00,,,0.00,0,HR-IXP-WINDi_r2_v1.2,2013-06-12 11:22:00,
2013-06-12 04:27:00,64.2,60.8,29.94,SSW,200,0.0,4.0,89,0.00,,,0.00,0,HR-IXP-WINDi_r2_v1.2,2013-06-12 11:27:00,
2013-06-12 04:32:00,64.1,60.7,29.94,SSW,206,1.0,4.0,89,0.00,,,0.00,0,HR-IXP-WINDi_r2_v1.2,2013-06-12 11:32:00,
2013-06-12 04:37:00,64.0,60.6,29.94,SSW,211,0.0,3.0,89,0.00,,,0.00,0,HR-IXP-WINDi_r2_v1.2,2013-06-12 11:37:00,
2013-06-12 04:43:00,64.0,60.6,29.94,SW,214,2.0,4.0,89,0.00,,,0.00,0,HR-IXP-WINDi_r2_v1.2,2013-06-12 11:43:00,
2013-06-12 04:48:00,64.0,60.6,29.94,SW,215,2.0,4.0,89,0.00,,,0.00,0,HR-IXP-WINDi_r2_v1.2,2013-06-12 11:48:00,
2013-06-12 04:53:00,64.0,60.9,29.94,SW,215,1.0,4.0,90,0.00,,,0.00,0,HR-IXP-WINDi_r2_v1.2,2013-06-12 11:53:00,
2013-06-12 04:58:00,63.9,60.8,29.95,SW,227,1.0,3.0,90,0.00,,,0.00,0,HR-IXP-WINDi_r2_v1.2,2013-06-12 11:58:00,
2013-06-12 05:03:00,63.9,60.8,29.95,West,263,3.0,4.0,90,0.00,,,0.00,0,HR-IXP-WINDi_r2_v1.2,2013-06-12 12:03:00,
2013-06-12 05:09:00,63.9,60.8,29.95,West,259,0.0,4.0,90,0.00,,,0.00,0,HR-IXP-WINDi_r2_v1.2,2013-06-12 12:09:00,
2013-06-12 05:14:00,63.9,60.5,29.95,SW,219,0.0,4.0,89,0.00,,,0.00,0,HR-IXP-WINDi_r2_v1.2,2013-06-12 12:14:00,
2013-06-12 05:19:00,64.0,60.6,29.95,WSW,238,0.0,3.0,89,0.00,,,0.00,0,HR-IXP-WINDi_r2_v1.2,2013-06-12 12:19:00,
2013-06-12 05:24:00,64.0,60.6,29.95,WSW,238,0.0,3.0,89,0.00,,,0.00,0,HR-IXP-WINDi_r2_v1.2,2013-06-12 12:24:00,
2013-06-12 05:29:00,64.1,60.7,29.95,WSW,238,0.0,3.0,89,0.00,,,0.00,0,HR-IXP-WINDi_r2_v1.2,2013-06-12 12:29:00,
2013-06-12 05:35:00,64.0,60.6,29.95,WSW,238,0.0,2.0,89,0.00,,,0.00,0,HR-IXP-WINDi_r2_v1.2,2013-06-12 12:35:00,
2013-06-12 05:40:00,64.0,60.6,29.95,WSW,238,0.0,2.0,89,0.00,,,0.00,0,HR-IXP-WINDi_r2_v1.2,2013-06-12 12:40:00,
2013-06-12 05:46:00,64.0,60.6,29.96,WSW,238,0.0,2.0,89,0.00,,,0.00,0,HR-IXP-WINDi_r2_v1.2,2013-06-12 12:46:00,
2013-06-12 05:51:00,64.0,60.6,29.96,WSW,238,0.0,2.0,89,0.00,,,0.00,0,HR-IXP-WINDi_r2_v1.2,2013-06-12 12:51:00,
2013-06-12 05:56:00,64.0,60.6,29.96,WSW,238,0.0,2.0,89,0.00,,,0.00,5,HR-IXP-WINDi_r2_v1.2,2013-06-12 12:56:00,
2013-06-12 06:01:00,64.1,60.7,29.96,WSW,238,0.0,1.0,89,0.00,,,0.00,7,HR-IXP-WINDi_r2_v1.2,2013-06-12 13:01:00,
2013-06-12 06:06:00,64.1,60.4,29.96,WSW,238,0.0,1.0,88,0.00,,,0.00,9,HR-IXP-WINDi_r2_v1.2,2013-06-12 13:06:00,
2013-06-12 06:11:00,64.2,60.5,29.96,WSW,238,1.0,2.0,88,0.00,,,0.00,14,HR-IXP-WINDi_r2_v1.2,2013-06-12 13:11:00,
2013-06-12 06:17:00,64.3,60.6,29.96,WSW,238,0.0,2.0,88,0.00,,,0.00,16,HR-IXP-WINDi_r2_v1.2,2013-06-12 13:17:00,
2013-06-12 06:22:00,64.3,60.6,29.96,WSW,238,0.0,3.0,88,0.00,,,0.00,18,HR-IXP-WINDi_r2_v1.2,2013-06-12 13:22:00,
2013-06-12 06:27:00,64.4,60.7,29.97,WSW,238,0.0,3.0,88,0.00,,,0.00,21,HR-IXP-WINDi_r2_v1.2,2013-06-12 13:27:00,
2013-06-12 06:32:00,64.5,60.8,29.97,SW,220,2.0,3.0,88,0.00,,,0.00,28,HR-IXP-WINDi_r2_v1.2,2013-06-12 13:32:00,
2013-06-12 06:38:00,64.5,60.8,29.97,SW,221,1.0,3.0,88,0.00,,,0.00,28,HR-IXP-WINDi_r2_v1.2,2013-06-12 13:38:00,
2013-06-12 06:43:00,64.6,60.9,29.97,SW,221,0.0,2.0,88,0.00,,,0.00,30,HR-IXP-WINDi_r2_v1.2,2013-06-12 13:43:00,
2013-06-12 06:48:00,64.6,60.9,29.97,SW,221,0.0,2.0,88,0.00,,,0.00,32,HR-IXP-WINDi_r2_v1.2,2013-06-12 13:48:00,
2013-06-12 06:53:00,64.6,60.9,29.97,SW,221,1.0,3.0,88,0.00,,,0.00,30,HR-IXP-WINDi_r2_v1.2,2013-06-12 13:53:00,
2013-06-12 06:58:00,64.5,60.8,29.97,SW,216,0.0,4.0,88,0.00,,,0.00,39,HR-IXP-WINDi_r2_v1.2,2013-06-12 13:58:00,
2013-06-12 07:03:00,64.5,60.8,29.97,SSW,208,3.0,4.0,88,0.00,,,0.00,40,HR-IXP-WINDi_r2_v1.2,2013-06-12 14:03:00,
2013-06-12 07:08:00,64.5,60.8,29.97,SSW,208,1.0,4.0,88,0.00,,,0.00,30,HR-IXP-WINDi_r2_v1.2,2013-06-12 14:08:00,
2013-06-12 07:13:00,64.6,60.9,29.97,SSW,209,1.0,4.0,88,0.00,,,0.00,47,HR-IXP-WINDi_r2_v1.2,2013-06-12 14:13:00,
2013-06-12 07:18:00,64.5,60.8,29.97,SW,219,2.0,4.0,88,0.00,,,0.00,35,HR-IXP-WINDi_r2_v1.2,2013-06-12 14:18:00,
2013-06-12 07:23:00,64.9,61.2,29.97,SW,215,0.0,4.0,88,0.00,,,0.00,54,HR-IXP-WINDi_r2_v1.2,2013-06-12 14:23:00,
2013-06-12 07:28:00,65.0,61.0,29.98,South,189,0.0,3.0,87,0.00,,,0.00,35,HR-IXP-WINDi_r2_v1.2,2013-06-12 14:28:00,
2013-06-12 07:34:00,65.1,61.1,29.98,South,180,0.0,2.0,87,0.00,,,0.00,63,HR-IXP-WINDi_r2_v1.2,2013-06-12 14:34:00,
2013-06-12 07:39:00,65.3,60.9,29.98,SSE,160,0.0,3.0,86,0.00,,,0.00,62,HR-IXP-WINDi_r2_v1.2,2013-06-12 14:39:00,
2013-06-12 07:44:00,65.5,61.1,29.98,SE,139,3.0,3.0,86,0.00,,,0.00,120,HR-IXP-WINDi_r2_v1.2,2013-06-12 14:44:00,
2013-06-12 07:50:00,65.9,61.5,29.98,East,93,0.0,5.0,86,0.00,,,0.00,76,HR-IXP-WINDi_r2_v1.2,2013-06-12 14:50:00,
2013-06-12 07:55:00,66.0,61.3,29.98,ESE,117,1.0,5.0,85,0.00,,,0.00,70,HR-IXP-WINDi_r2_v1.2,2013-06-12 14:55:00,
2013-06-12 08:00:00,66.1,61.4,29.98,East,93,0.0,3.0,85,0.00,,,0.00,84,HR-IXP-WINDi_r2_v1.2,2013-06-12 15:00:00,
2013-06-12 08:05:00,66.3,61.6,29.98,SE,141,2.0,3.0,85,0.00,,,0.00,111,HR-IXP-WINDi_r2_v1.2,2013-06-12 15:05:00,
2013-06-12 08:10:00,65.8,61.1,29.98,South,173,0.0,4.0,85,0.00,,,0.00,79,HR-IXP-WINDi_r2_v1.2,2013-06-12 15:10:00,
2013-06-12 08:16:00,65.7,61.0,29.99,South,182,0.0,4.0,85,0.00,,,0.00,72,HR-IXP-WINDi_r2_v1.2,2013-06-12 15:16:00,
2013-06-12 08:21:00,65.8,61.1,29.99,South,178,1.0,3.0,85,0.00,,,0.00,63,HR-IXP-WINDi_r2_v1.2,2013-06-12 15:21:00,
2013-06-12 08:26:00,65.5,60.8,29.99,SSW,200,1.0,4.0,85,0.00,,,0.00,81,HR-IXP-WINDi_r2_v1.2,2013-06-12 15:26:00,
2013-06-12 08:31:00,65.4,61.0,29.99,SSW,209,0.0,4.0,86,0.00,,,0.00,81,HR-IXP-WINDi_r2_v1.2,2013-06-12 15:31:00,
2013-06-12 08:36:00,65.9,61.5,29.99,SE,137,1.0,4.0,86,0.00,,,0.00,72,HR-IXP-WINDi_r2_v1.2,2013-06-12 15:36:00,
2013-06-12 08:42:00,65.8,61.1,29.99,SE,129,1.0,3.0,85,0.00,,,0.00,60,HR-IXP-WINDi_r2_v1.2,2013-06-12 15:42:00,
2013-06-12 08:47:00,65.9,61.2,30.00,SE,138,1.0,3.0,85,0.00,,,0.00,88,HR-IXP-WINDi_r2_v1.2,2013-06-12 15:47:00,
2013-06-12 08:52:00,65.8,61.4,30.00,SSE,155,1.0,3.0,86,0.00,,,0.00,114,HR-IXP-WINDi_r2_v1.2,2013-06-12 15:52:00,
2013-06-12 08:57:00,65.8,61.4,30.00,SSE,155,3.0,3.0,86,0.00,,,0.00,114,HR-IXP-WINDi_r2_v1.2,2013-06-12 15:57:00,
2013-06-12 09:02:00,65.9,61.5,30.00,SSE,167,1.0,3.0,86,0.00,,,0.00,105,HR-IXP-WINDi_r2_v1.2,2013-06-12 16:02:00,
2013-06-12 09:07:00,65.7,61.3,30.00,South,190,3.0,4.0,86,0.00,,,0.00,125,HR-IXP-WINDi_r2_v1.2,2013-06-12 16:07:00,
2013-06-12 09:13:00,65.5,61.1,30.00,SSW,205,2.0,5.0,86,0.00,,,0.00,128,HR-IXP-WINDi_r2_v1.2,2013-06-12 16:13:00,
2013-06-12 09:18:00,65.6,61.2,30.00,South,172,1.0,5.0,86,0.00,,,0.00,111,HR-IXP-WINDi_r2_v1.2,2013-06-12 16:18:00,
2013-06-12 09:23:00,65.6,61.2,30.00,SSE,164,1.0,4.0,86,0.00,,,0.00,123,HR-IXP-WINDi_r2_v1.2,2013-06-12 16:23:00,
2013-06-12 09:28:00,65.4,61.0,30.01,SSE,154,1.0,5.0,86,0.00,,,0.00,95,HR-IXP-WINDi_r2_v1.2,2013-06-12 16:28:00,
2013-06-12 09:34:00,65.3,60.9,30.01,South,169,0.0,5.0,86,0.00,,,0.00,123,HR-IXP-WINDi_r2_v1.2,2013-06-12 16:34:00,
2013-06-12 09:39:00,65.0,60.6,30.01,SSW,202,2.0,7.0,86,0.00,,,0.00,95,HR-IXP-WINDi_r2_v1.2,2013-06-12 16:39:00,
2013-06-12 09:44:00,64.9,60.9,30.01,South,182,2.0,7.0,87,0.00,,,0.00,141,HR-IXP-WINDi_r2_v1.2,2013-06-12 16:44:00,
2013-06-12 09:49:00,65.4,61.4,30.01,SSE,163,2.0,5.0,87,0.00,,,0.00,158,HR-IXP-WINDi_r2_v1.2,2013-06-12 16:49:00,
2013-06-12 09:54:00,65.4,61.0,30.01,South,173,2.0,5.0,86,0.00,,,0.00,176,HR-IXP-WINDi_r2_v1.2,2013-06-12 16:54:00,
2013-06-12 09:59:00,65.5,60.8,30.01,South,190,0.0,5.0,85,0.00,,,0.00,186,HR-IXP-WINDi_r2_v1.2,2013-06-12 16:59:00,
2013-06-12 10:04:00,65.7,61.0,30.02,SSW,194,3.0,4.0,85,0.00,,,0.00,158,HR-IXP-WINDi_r2_v1.2,2013-06-12 17:04:00,
2013-06-12 10:10:00,65.7,60.7,30.02,SSW,205,1.0,7.0,84,0.00,,,0.00,155,HR-IXP-WINDi_r2_v1.2,2013-06-12 17:10:00,
2013-06-12 10:15:00,65.6,60.9,30.02,SSE,164,1.0,7.0,85,0.00,,,0.00,135,HR-IXP-WINDi_r2_v1.2,2013-06-12 17:15:00,
2013-06-12 10:20:00,65.7,60.7,30.02,SSE,163,2.0,5.0,84,0.00,,,0.00,95,HR-IXP-WINDi_r2_v1.2,2013-06-12 17:20:00,
2013-06-12 10:25:00,65.5,60.5,30.02,South,173,2.0,6.0,84,0.00,,,0.00,72,HR-IXP-WINDi_r2_v1.2,2013-06-12 17:25:00,
2013-06-12 10:30:00,65.0,60.3,30.02,SSW,193,2.0,8.0,85,0.00,,,0.00,132,HR-IXP-WINDi_r2_v1.2,2013-06-12 17:30:00,
2013-06-12 10:35:00,65.2,60.5,30.03,SSW,200,1.0,8.0,85,0.00,,,0.00,72,HR-IXP-WINDi_r2_v1.2,2013-06-12 17:35:00,
2013-06-12 10:41:00,65.2,60.5,30.03,South,190,3.0,7.0,85,0.00,,,0.00,86,HR-IXP-WINDi_r2_v1.2,2013-06-12 17:41:00,
2013-06-12 10:46:00,65.2,60.5,30.03,SSE,161,1.0,6.0,85,0.00,,,0.00,104,HR-IXP-WINDi_r2_v1.2,2013-06-12 17:46:00,
2013-06-12 10:51:00,65.0,60.6,30.04,South,180,0.0,6.0,86,0.00,,,0.00,81,HR-IXP-WINDi_r2_v1.2,2013-06-12 17:51:00,
2013-06-12 10:56:00,64.7,60.3,30.04,SW,225,3.0,8.0,86,0.00,,,0.00,84,HR-IXP-WINDi_r2_v1.2,2013-06-12 17:56:00,
2013-06-12 11:01:00,64.7,60.7,30.04,South,171,1.0,8.0,87,0.00,,,0.00,81,HR-IXP-WINDi_r2_v1.2,2013-06-12 18:01:00,
2013-06-12 11:06:00,64.8,60.8,30.04,SSE,161,1.0,4.0,87,0.00,,,0.00,97,HR-IXP-WINDi_r2_v1.2,2013-06-12 18:06:00,
2013-06-12 11:12:00,64.9,60.9,30.04,South,184,2.0,6.0,87,0.00,,,0.00,116,HR-IXP-WINDi_r2_v1.2,2013-06-12 18:12:00,
2013-06-12 11:17:00,64.8,60.4,30.05,SSW,212,4.0,7.0,86,0.00,,,0.00,174,HR-IXP-WINDi_r2_v1.2,2013-06-12 18:17:00,
2013-06-12 11:22:00,65.1,61.1,30.05,SSW,195,2.0,7.0,87,0.00,,,0.00,223,HR-IXP-WINDi_r2_v1.2,2013-06-12 18:22:00,
2013-06-12 11:27:00,65.1,61.1,30.05,SSW,205,3.0,6.0,87,0.00,,,0.00,230,HR-IXP-WINDi_r2_v1.2,2013-06-12 18:27:00,
2013-06-12 11:33:00,65.2,61.5,30.05,South,190,3.0,6.0,88,0.00,,,0.00,260,HR-IXP-WINDi_r2_v1.2,2013-06-12 18:33:00,
2013-06-12 11:38:00,65.5,61.1,30.04,SW,218,3.0,7.0,86,0.00,,,0.00,283,HR-IXP-WINDi_r2_v1.2,2013-06-12 18:38:00,
2013-06-12 11:43:00,65.7,61.7,30.04,WSW,246,1.0,7.0,87,0.00,,,0.00,272,HR-IXP-WINDi_r2_v1.2,2013-06-12 18:43:00,
2013-06-12 11:48:00,65.6,61.2,30.04,South,190,0.0,6.0,86,0.00,,,0.00,214,HR-IXP-WINDi_r2_v1.2,2013-06-12 18:48:00,
2013-06-12 11:53:00,65.6,61.2,30.04,SW,221,2.0,6.0,86,0.00,,,0.00,281,HR-IXP-WINDi_r2_v1.2,2013-06-12 18:53:00,
2013-06-12 11:59:00,66.6,62.2,30.04,SSW,205,4.0,6.0,86,0.00,,,0.00,264,HR-IXP-WINDi_r2_v1.2,2013-06-12 18:59:00,
2013-06-12 12:04:00,66.6,61.9,30.04,SSW,194,3.0,6.0,85,0.00,,,0.00,274,HR-IXP-WINDi_r2_v1.2,2013-06-12 19:04:00,
2013-06-12 12:09:00,66.5,61.5,30.04,SW,215,2.0,6.0,84,0.00,,,0.00,274,HR-IXP-WINDi_r2_v1.2,2013-06-12 19:09:00,
2013-06-12 12:14:00,66.2,61.5,30.04,WSW,242,3.0,8.0,85,0.00,,,0.00,237,HR-IXP-WINDi_r2_v1.2,2013-06-12 19:14:00,
2013-06-12 12:19:00,65.8,61.1,30.03,West,260,3.0,8.0,85,0.00,,,0.00,211,HR-IXP-WINDi_r2_v1.2,2013-06-12 19:19:00,
2013-06-12 12:24:00,66.1,61.4,30.04,SSW,201,7.0,7.0,85,0.00,,,0.00,287,HR-IXP-WINDi_r2_v1.2,2013-06-12 19:24:00,
2013-06-12 12:29:00,66.2,61.5,30.04,WSW,238,2.0,10.0,85,0.00,,,0.00,323,HR-IXP-WINDi_r2_v1.2,2013-06-12 19:29:00,
2013-06-12 12:35:00,66.0,61.3,30.04,South,185,1.0,10.0,85,0.00,,,0.00,313,HR-IXP-WINDi_r2_v1.2,2013-06-12 19:35:00,
2013-06-12 12:40:00,66.1,61.4,30.03,SW,215,4.0,7.0,85,0.00,,,0.00,336,HR-IXP-WINDi_r2_v1.2,2013-06-12 19:40:00,
2013-06-12 12:45:00,66.2,61.2,30.03,South,190,4.0,8.0,84,0.00,,,0.00,366,HR-IXP-WINDi_r2_v1.2,2013-06-12 19:45:00,
2013-06-12 12:50:00,66.6,61.5,30.03,SSW,211,0.0,8.0,84,0.00,,,0.00,362,HR-IXP-WINDi_r2_v1.2,2013-06-12 19:50:00,
2013-06-12 12:55:00,67.0,61.6,30.03,SW,232,3.0,6.0,83,0.00,,,0.00,420,HR-IXP-WINDi_r2_v1.2,2013-06-12 19:55:00,
2013-06-12 13:00:00,66.8,61.4,30.03,WSW,243,4.0,7.0,83,0.00,,,0.00,461,HR-IXP-WINDi_r2_v1.2,2013-06-12 20:00:00,
2013-06-12 13:06:00,67.0,61.6,30.03,SW,236,4.0,7.0,83,0.00,,,0.00,497,HR-IXP-WINDi_r2_v1.2,2013-06-12 20:06:00,
2013-06-12 13:11:00,67.0,61.6,30.02,WSW,238,5.0,7.0,83,0.00,,,0.00,475,HR-IXP-WINDi_r2_v1.2,2013-06-12 20:11:00,
2013-06-12 13:16:00,67.0,61.9,30.02,SW,231,4.0,7.0,84,0.00,,,0.00,559,HR-IXP-WINDi_r2_v1.2,2013-06-12 20:16:00,
2013-06-12 13:22:00,67.7,62.3,30.02,SW,214,5.0,6.0,83,0.00,,,0.00,547,HR-IXP-WINDi_r2_v1.2,2013-06-12 20:22:00,
2013-06-12 13:27:00,68.0,62.6,30.02,SSW,208,1.0,7.0,83,0.00,,,0.00,619,HR-IXP-WINDi_r2_v1.2,2013-06-12 20:27:00,
2013-06-12 13:32:00,68.5,63.1,30.02,WSW,240,4.0,7.0,83,0.00,,,0.00,615,HR-IXP-WINDi_r2_v1.2,2013-06-12 20:32:00,
2013-06-12 13:37:00,68.8,63.0,30.01,SSW,198,3.0,7.0,82,0.00,,,0.00,603,HR-IXP-WINDi_r2_v1.2,2013-06-12 20:37:00,
2013-06-12 13:42:00,68.1,62.0,30.01,South,175,1.0,8.0,81,0.00,,,0.00,555,HR-IXP-WINDi_r2_v1.2,2013-06-12 20:42:00,
2013-06-12 13:47:00,68.9,63.1,30.01,SSW,206,4.0,8.0,82,0.00,,,0.00,578,HR-IXP-WINDi_r2_v1.2,2013-06-12 20:47:00,
2013-06-12 13:52:00,69.2,62.7,30.01,WSW,242,2.0,8.0,80,0.00,,,0.00,610,HR-IXP-WINDi_r2_v1.2,2013-06-12 20:52:00,
2013-06-12 13:58:00,69.4,62.9,30.01,SSW,196,5.0,8.0,80,0.00,,,0.00,624,HR-IXP-WINDi_r2_v1.2,2013-06-12 20:58:00,
2013-06-12 14:03:00,69.1,63.0,30.01,SSW,200,2.0,8.0,81,0.00,,,0.00,512,HR-IXP-WINDi_r2_v1.2,2013-06-12 21:03:00,
2013-06-12 14:08:00,69.5,63.7,30.01,SW,223,5.0,9.0,82,0.00,,,0.00,670,HR-IXP-WINDi_r2_v1.2,2013-06-12 21:08:00,
2013-06-12 14:13:00,70.1,63.2,30.00,SW,235,3.0,9.0,79,0.00,,,0.00,888,HR-IXP-WINDi_r2_v1.2,2013-06-12 21:13:00,
2013-06-12 14:18:00,70.0,63.5,30.00,WSW,251,0.0,8.0,80,0.00,,,0.00,675,HR-IXP-WINDi_r2_v1.2,2013-06-12 21:18:00,
2013-06-12 14:24:00,70.1,63.2,30.00,SSW,209,4.0,9.0,79,0.00,,,0.00,1201,HR-IXP-WINDi_r2_v1.2,2013-06-12 21:24:00,
2013-06-12 14:29:00,70.3,63.1,30.00,WSW,243,0.0,9.0,78,0.00,,,0.00,851,HR-IXP-WINDi_r2_v1.2,2013-06-12 21:29:00,
2013-06-12 14:34:00,70.6,63.0,30.00,WSW,240,5.0,8.0,77,0.00,,,0.00,712,HR-IXP-WINDi_r2_v1.2,2013-06-12 21:34:00,
2013-06-12 14:39:00,70.1,62.9,30.00,WSW,242,3.0,9.0,78,0.00,,,0.00,585,HR-IXP-WINDi_r2_v1.2,2013-06-12 21:39:00,
2013-06-12 14:44:00,69.3,62.4,29.99,SSW,196,5.0,11.0,79,0.00,,,0.00,563,HR-IXP-WINDi_r2_v1.2,2013-06-12 21:44:00,
2013-06-12 14:49:00,69.3,62.8,29.99,SSW,206,2.0,11.0,80,0.00,,,0.00,512,HR-IXP-WINDi_r2_v1.2,2013-06-12 21:49:00,
2013-06-12 14:54:00,68.9,62.1,29.99,WSW,243,4.0,9.0,79,0.00,,,0.00,485,HR-IXP-WINDi_r2_v1.2,2013-06-12 21:54:00,
2013-06-12 15:00:00,69.3,62.4,29.99,WSW,255,3.0,9.0,79,0.00,,,0.00,485,HR-IXP-WINDi_r2_v1.2,2013-06-12 22:00:00,
2013-06-12 15:05:00,68.6,62.1,29.99,SSW,192,2.0,9.0,80,0.00,,,0.00,540,HR-IXP-WINDi_r2_v1.2,2013-06-12 22:05:00,
2013-06-12 15:10:00,69.2,62.7,29.99,SW,219,7.0,10.0,80,0.00,,,0.00,652,HR-IXP-WINDi_r2_v1.2,2013-06-12 22:10:00,
2013-06-12 15:15:00,69.1,62.6,29.99,WSW,250,2.0,10.0,80,0.00,,,0.00,636,HR-IXP-WINDi_r2_v1.2,2013-06-12 22:15:00,
2013-06-12 15:20:00,69.4,62.5,29.99,WSW,250,2.0,11.0,79,0.00,,,0.00,809,HR-IXP-WINDi_r2_v1.2,2013-06-12 22:20:00,
2013-06-12 15:25:00,69.9,63.0,29.98,WSW,238,2.0,11.0,79,0.00,,,0.00,812,HR-IXP-WINDi_r2_v1.2,2013-06-12 22:25:00,
2013-06-12 15:30:00,70.6,62.6,29.98,SSW,200,4.0,8.0,76,0.00,,,0.00,779,HR-IXP-WINDi_r2_v1.2,2013-06-12 22:30:00,
2013-06-12 15:36:00,70.7,62.7,29.98,SW,217,4.0,9.0,76,0.00,,,0.00,770,HR-IXP-WINDi_r2_v1.2,2013-06-12 22:36:00,
2013-06-12 15:41:00,70.4,62.4,29.98,SSW,213,7.0,9.0,76,0.00,,,0.00,262,HR-IXP-WINDi_r2_v1.2,2013-06-12 22:41:00,
2013-06-12 15:46:00,70.4,62.8,29.98,South,171,0.0,8.0,77,0.00,,,0.00,696,HR-IXP-WINDi_r2_v1.2,2013-06-12 22:46:00,
2013-06-12 15:51:00,71.2,63.6,29.98,SSW,197,0.0,8.0,77,0.00,,,0.00,733,HR-IXP-WINDi_r2_v1.2,2013-06-12 22:51:00,
2013-06-12 15:56:00,71.8,63.4,29.97,SW,216,4.0,9.0,75,0.00,,,0.00,555,HR-IXP-WINDi_r2_v1.2,2013-06-12 22:56:00,
2013-06-12 16:02:00,70.7,62.3,29.97,SW,223,2.0,9.0,75,0.00,,,0.00,728,HR-IXP-WINDi_r2_v1.2,2013-06-12 23:02:00,
2013-06-12 16:08:00,70.6,63.0,29.97,WSW,237,3.0,8.0,77,0.00,,,0.00,788,HR-IXP-WINDi_r2_v1.2,2013-06-12 23:08:00,
2013-06-12 16:13:00,70.7,62.7,29.97,SSW,213,4.0,8.0,76,0.00,,,0.00,668,HR-IXP-WINDi_r2_v1.2,2013-06-12 23:13:00,
2013-06-12 16:18:00,70.4,62.0,29.98,West,263,1.0,8.0,75,0.00,,,0.00,605,HR-IXP-WINDi_r2_v1.2,2013-06-12 23:18:00,
2013-06-12 16:24:00,70.4,62.4,29.97,WSW,251,1.0,8.0,76,0.00,,,0.00,598,HR-IXP-WINDi_r2_v1.2,2013-06-12 23:24:00,
2013-06-12 16:29:00,70.8,62.0,29.97,SW,232,3.0,9.0,74,0.00,,,0.00,591,HR-IXP-WINDi_r2_v1.2,2013-06-12 23:29:00,
2013-06-12 16:34:00,71.6,63.6,29.97,SW,228,7.0,9.0,76,0.00,,,0.00,580,HR-IXP-WINDi_r2_v1.2,2013-06-12 23:34:00,
2013-06-12 16:39:00,71.0,62.2,29.97,WSW,247,4.0,8.0,74,0.00,,,0.00,571,HR-IXP-WINDi_r2_v1.2,2013-06-12 23:39:00,
2013-06-12 16:45:00,70.8,62.4,29.97,SW,223,2.0,8.0,75,0.00,,,0.00,554,HR-IXP-WINDi_r2_v1.2,2013-06-12 23:45:00,
2013-06-12 16:50:00,70.7,61.9,29.97,SW,227,3.0,8.0,74,0.00,,,0.00,543,HR-IXP-WINDi_r2_v1.2,2013-06-12 23:50:00,
2013-06-12 16:55:00,70.5,62.1,29.97,SSW,193,3.0,10.0,75,0.00,,,0.00,497,HR-IXP-WINDi_r2_v1.2,2013-06-12 23:55:00,
2013-06-12 17:00:00,70.3,61.9,29.97,SSW,207,4.0,10.0,75,0.00,,,0.00,504,HR-IXP-WINDi_r2_v1.2,2013-06-13 00:00:00,
2013-06-12 17:05:00,70.0,62.0,29.97,WSW,252,4.0,10.0,76,0.00,,,0.00,483,HR-IXP-WINDi_r2_v1.2,2013-06-13 00:05:00,
2013-06-12 17:10:00,69.7,61.7,29.97,SW,222,3.0,10.0,76,0.00,,,0.00,473,HR-IXP-WINDi_r2_v1.2,2013-06-13 00:10:00,
2013-06-12 17:16:00,69.8,61.8,29.97,SW,225,0.0,10.0,76,0.00,,,0.00,450,HR-IXP-WINDi_r2_v1.2,2013-06-13 00:16:00,
2013-06-12 17:21:00,69.1,61.5,29.97,SW,221,0.0,7.0,77,0.00,,,0.00,434,HR-IXP-WINDi_r2_v1.2,2013-06-13 00:21:00,
2013-06-12 17:26:00,69.0,61.4,29.97,SW,222,0.0,0.0,77,0.00,,,0.00,374,HR-IXP-WINDi_r2_v1.2,2013-06-13 00:26:00,
2013-06-12 17:31:00,69.3,61.3,29.97,SSW,197,0.0,0.0,76,0.00,,,0.00,374,HR-IXP-WINDi_r2_v1.2,2013-06-13 00:31:00,
2013-06-12 17:37:00,68.7,61.1,29.97,WSW,243,3.0,5.0,77,0.00,,,0.00,394,HR-IXP-WINDi_r2_v1.2,2013-06-13 00:37:00,
2013-06-12 17:42:00,69.3,62.1,29.97,SW,232,8.0,9.0,78,0.00,,,0.00,369,HR-IXP-WINDi_r2_v1.2,2013-06-13 00:42:00,
2013-06-12 17:47:00,68.5,61.3,29.97,SSW,211,7.0,10.0,78,0.00,,,0.00,355,HR-IXP-WINDi_r2_v1.2,2013-06-13 00:47:00,
2013-06-12 17:53:00,68.3,61.1,29.97,SW,232,4.0,10.0,78,0.00,,,0.00,334,HR-IXP-WINDi_r2_v1.2,2013-06-13 00:53:00,
2013-06-12 17:58:00,68.4,61.2,29.97,SW,236,4.0,10.0,78,0.00,,,0.00,322,HR-IXP-WINDi_r2_v1.2,2013-06-13 00:58:00,
2013-06-12 18:03:00,68.2,61.4,29.97,SSW,206,3.0,10.0,79,0.00,,,0.00,306,HR-IXP-WINDi_r2_v1.2,2013-06-13 01:03:00,
2013-06-12 18:08:00,67.8,60.6,29.97,SW,220,4.0,10.0,78,0.00,,,0.00,288,HR-IXP-WINDi_r2_v1.2,2013-06-13 01:08:00,
2013-06-12 18:13:00,67.6,60.8,29.97,WSW,244,5.0,10.0,79,0.00,,,0.00,271,HR-IXP-WINDi_r2_v1.2,2013-06-13 01:13:00,
2013-06-12 18:19:00,67.4,60.6,29.97,SSW,196,4.0,9.0,79,0.00,,,0.00,253,HR-IXP-WINDi_r2_v1.2,2013-06-13 01:19:00,
2013-06-12 18:24:00,67.4,60.6,29.97,West,267,3.0,10.0,79,0.00,,,0.00,236,HR-IXP-WINDi_r2_v1.2,2013-06-13 01:24:00,
2013-06-12 18:29:00,67.3,60.9,29.97,SW,231,1.0,10.0,80,0.00,,,0.00,218,HR-IXP-WINDi_r2_v1.2,2013-06-13 01:29:00,
2013-06-12 18:34:00,67.5,60.7,29.97,South,180,4.0,7.0,79,0.00,,,0.00,202,HR-IXP-WINDi_r2_v1.2,2013-06-13 01:34:00,
2013-06-12 18:39:00,67.2,60.4,29.97,SW,221,5.0,8.0,79,0.00,,,0.00,186,HR-IXP-WINDi_r2_v1.2,2013-06-13 01:39:00,
2013-06-12 18:45:00,66.8,60.0,29.97,SW,220,4.0,10.0,79,0.00,,,0.00,167,HR-IXP-WINDi_r2_v1.2,2013-06-13 01:45:00,
2013-06-12 18:50:00,66.6,60.2,29.97,WSW,256,2.0,10.0,80,0.00,,,0.00,149,HR-IXP-WINDi_r2_v1.2,2013-06-13 01:50:00,
2013-06-12 18:55:00,66.6,60.2,29.97,WSW,238,3.0,8.0,80,0.00,,,0.00,93,HR-IXP-WINDi_r2_v1.2,2013-06-13 01:55:00,
2013-06-12 19:00:00,66.4,60.0,29.97,SW,220,5.0,8.0,80,0.00,,,0.00,114,HR-IXP-WINDi_r2_v1.2,2013-06-13 02:00:00,
2013-06-12 19:06:00,66.2,60.1,29.97,SW,219,7.0,11.0,81,0.00,,,0.00,98,HR-IXP-WINDi_r2_v1.2,2013-06-13 02:06:00,
2013-06-12 19:11:00,66.1,60.4,29.97,SSW,211,4.0,11.0,82,0.00,,,0.00,84,HR-IXP-WINDi_r2_v1.2,2013-06-13 02:11:00,
2013-06-12 19:16:00,66.0,59.9,29.97,SW,216,2.0,7.0,81,0.00,,,0.00,65,HR-IXP-WINDi_r2_v1.2,2013-06-13 02:16:00,
2013-06-12 19:21:00,65.8,59.7,29.97,SSW,205,2.0,7.0,81,0.00,,,0.00,40,HR-IXP-WINDi_r2_v1.2,2013-06-13 02:21:00,
2013-06-12 19:26:00,65.2,59.5,29.97,SSW,211,4.0,7.0,82,0.00,,,0.00,30,HR-IXP-WINDi_r2_v1.2,2013-06-13 02:26:00,
2013-06-12 19:32:00,64.9,59.5,29.98,SW,224,3.0,6.0,83,0.00,,,0.00,26,HR-IXP-WINDi_r2_v1.2,2013-06-13 02:32:00,
2013-06-12 19:37:00,64.8,59.5,29.98,SSW,198,6.0,7.0,83,0.00,,,0.00,18,HR-IXP-WINDi_r2_v1.2,2013-06-13 02:37:00,
2013-06-12 19:42:00,64.7,59.4,29.98,SSW,202,3.0,7.0,83,0.00,,,0.00,12,HR-IXP-WINDi_r2_v1.2,2013-06-13 02:42:00,
2013-06-12 19:47:00,64.7,59.4,29.98,South,186,2.0,8.0,83,0.00,,,0.00,9,HR-IXP-WINDi_r2_v1.2,2013-06-13 02:47:00,
2013-06-12 19:52:00,64.8,59.8,29.98,South,184,3.0,8.0,84,0.00,,,0.00,5,HR-IXP-WINDi_r2_v1.2,2013-06-13 02:52:00,
2013-06-12 19:58:00,64.7,59.4,29.98,SW,223,3.0,7.0,83,0.00,,,0.00,0,HR-IXP-WINDi_r2_v1.2,2013-06-13 02:58:00,
2013-06-12 20:03:00,64.8,59.5,29.98,SSW,200,1.0,7.0,83,0.00,,,0.00,0,HR-IXP-WINDi_r2_v1.2,2013-06-13 03:03:00,
2013-06-12 20:08:00,64.9,59.5,29.98,SSW,205,3.0,5.0,83,0.00,,,0.00,0,HR-IXP-WINDi_r2_v1.2,2013-06-13 03:08:00,
2013-06-12 20:13:00,64.9,59.5,29.98,SW,224,4.0,6.0,83,0.00,,,0.00,0,HR-IXP-WINDi_r2_v1.2,2013-06-13 03:13:00,
2013-06-12 20:18:00,64.9,59.9,29.98,South,188,1.0,7.0,84,0.00,,,0.00,0,HR-IXP-WINDi_r2_v1.2,2013-06-13 03:18:00,
2013-06-12 20:24:00,65.0,60.0,29.98,SW,219,3.0,6.0,84,0.00,,,0.00,0,HR-IXP-WINDi_r2_v1.2,2013-06-13 03:24:00,
2013-06-12 20:29:00,64.9,59.5,29.98,SSW,211,2.0,6.0,83,0.00,,,0.00,0,HR-IXP-WINDi_r2_v1.2,2013-06-13 03:29:00,
2013-06-12 20:34:00,64.9,59.9,29.99,South,186,2.0,6.0,84,0.00,,,0.00,0,HR-IXP-WINDi_r2_v1.2,2013-06-13 03:34:00,
2013-06-12 20:39:00,65.0,60.0,29.99,SW,219,1.0,6.0,84,0.00,,,0.00,0,HR-IXP-WINDi_r2_v1.2,2013-06-13 03:39:00,
2013-06-12 20:45:00,65.0,60.0,29.99,SSW,198,5.0,6.0,84,0.00,,,0.00,0,HR-IXP-WINDi_r2_v1.2,2013-06-13 03:45:00,
2013-06-12 20:50:00,65.0,60.0,29.99,SSW,192,2.0,5.0,84,0.00,,,0.00,0,HR-IXP-WINDi_r2_v1.2,2013-06-13 03:50:00,
2013-06-12 20:55:00,65.1,60.1,29.99,WSW,258,1.0,5.0,84,0.00,,,0.00,0,HR-IXP-WINDi_r2_v1.2,2013-06-13 03:55:00,
2013-06-12 21:00:00,65.1,60.1,29.99,WSW,258,1.0,5.0,84,0.00,,,0.00,0,HR-IXP-WINDi_r2_v1.2,2013-06-13 04:00:00,
2013-06-12 21:01:00,65.2,60.2,29.99,SW,223,1.0,5.0,84,0.00,,,0.00,0,HR-IXP-WINDi_r2_v1.2,2013-06-13 04:01:00,
2013-06-12 21:06:00,65.0,60.0,29.99,SSW,195,1.0,4.0,84,0.00,,,0.00,0,HR-IXP-WINDi_r2_v1.2,2013-06-13 04:06:00,
2013-06-12 21:11:00,65.0,60.0,29.99,WSW,246,3.0,4.0,84,0.00,,,0.00,0,HR-IXP-WINDi_r2_v1.2,2013-06-13 04:11:00,
2013-06-12 21:16:00,65.0,59.6,29.99,WSW,252,1.0,4.0,83,0.00,,,0.00,0,HR-IXP-WINDi_r2_v1.2,2013-06-13 04:16:00,
2013-06-12 21:21:00,65.2,59.8,29.99,WSW,252,0.0,4.0,83,0.00,,,0.00,0,HR-IXP-WINDi_r2_v1.2,2013-06-13 04:21:00,
2013-06-12 21:27:00,65.2,59.8,29.99,SW,225,1.0,3.0,83,0.00,,,0.00,0,HR-IXP-WINDi_r2_v1.2,2013-06-13 04:27:00,
2013-06-12 21:32:00,65.2,59.8,30.00,SW,225,0.0,3.0,83,0.00,,,0.00,0,HR-IXP-WINDi_r2_v1.2,2013-06-13 04:32:00,
2013-06-12 21:37:00,65.4,60.0,30.00,SW,223,0.0,3.0,83,0.00,,,0.00,0,HR-IXP-WINDi_r2_v1.2,2013-06-13 04:37:00,
2013-06-12 21:43:00,65.5,59.8,30.00,SW,223,0.0,3.0,82,0.00,,,0.00,0,HR-IXP-WINDi_r2_v1.2,2013-06-13 04:43:00,
2013-06-12 21:48:00,65.3,59.6,30.00,WSW,238,0.0,3.0,82,0.00,,,0.00,0,HR-IXP-WINDi_r2_v1.2,2013-06-13 04:48:00,
2013-06-12 21:53:00,65.3,59.6,30.00,WSW,242,4.0,4.0,82,0.00,,,0.00,0,HR-IXP-WINDi_r2_v1.2,2013-06-13 04:53:00,
2013-06-12 21:58:00,65.2,59.5,30.00,WSW,255,3.0,5.0,82,0.00,,,0.00,0,HR-IXP-WINDi_r2_v1.2,2013-06-13 04:58:00,
2013-06-12 22:03:00,65.1,59.4,30.00,WSW,255,3.0,5.0,82,0.00,,,0.00,0,HR-IXP-WINDi_r2_v1.2,2013-06-13 05:03:00,
2013-06-12 22:08:00,65.0,59.3,30.00,West,272,2.0,4.0,82,0.00,,,0.00,0,HR-IXP-WINDi_r2_v1.2,2013-06-13 05:08:00,
2013-06-12 22:14:00,64.9,59.5,30.00,West,262,0.0,4.0,83,0.00,,,0.00,0,HR-IXP-WINDi_r2_v1.2,2013-06-13 05:14:00,
2013-06-12 22:19:00,65.0,59.6,30.00,West,262,2.0,4.0,83,0.00,,,0.00,0,HR-IXP-WINDi_r2_v1.2,2013-06-13 05:19:00,
2013-06-12 22:24:00,65.0,59.6,30.00,West,262,1.0,4.0,83,0.00,,,0.00,0,HR-IXP-WINDi_r2_v1.2,2013-06-13 05:24:00,
2013-06-12 22:29:00,64.9,59.5,30.00,West,271,0.0,4.0,83,0.00,,,0.00,0,HR-IXP-WINDi_r2_v1.2,2013-06-13 05:29:00,
2013-06-12 22:34:00,64.8,59.5,30.00,West,271,2.0,4.0,83,0.00,,,0.00,0,HR-IXP-WINDi_r2_v1.2,2013-06-13 05:34:00,
2013-06-12 22:39:00,64.8,59.5,30.00,West,271,0.0,3.0,83,0.00,,,0.00,0,HR-IXP-WINDi_r2_v1.2,2013-06-13 05:39:00,
2013-06-12 22:45:00,64.8,59.5,30.00,West,271,1.0,3.0,83,0.00,,,0.00,0,HR-IXP-WINDi_r2_v1.2,2013-06-13 05:45:00,
2013-06-12 22:50:00,64.7,59.4,30.00,West,271,1.0,4.0,83,0.00,,,0.00,0,HR-IXP-WINDi_r2_v1.2,2013-06-13 05:50:00,
2013-06-12 22:55:00,64.7,59.4,30.00,West,271,2.0,4.0,83,0.00,,,0.00,0,HR-IXP-WINDi_r2_v1.2,2013-06-13 05:55:00,
2013-06-12 23:00:00,64.8,59.5,30.00,West,264,1.0,6.0,83,0.00,,,0.00,0,HR-IXP-WINDi_r2_v1.2,2013-06-13 06:00:00,
2013-06-12 23:06:00,64.8,59.5,30.00,West,268,1.0,6.0,83,0.00,,,0.00,0,HR-IXP-WINDi_r2_v1.2,2013-06-13 06:06:00,
2013-06-12 23:11:00,64.9,59.5,30.00,West,268,0.0,4.0,83,0.00,,,0.00,0,HR-IXP-WINDi_r2_v1.2,2013-06-13 06:11:00,
2013-06-12 23:16:00,64.8,59.5,30.00,West,271,0.0,4.0,83,0.00,,,0.00,0,HR-IXP-WINDi_r2_v1.2,2013-06-13 06:16:00,
2013-06-12 23:21:00,64.7,59.4,30.00,West,271,3.0,4.0,83,0.00,,,0.00,0,HR-IXP-WINDi_r2_v1.2,2013-06-13 06:21:00,
2013-06-12 23:27:00,64.6,59.3,30.00,West,271,0.0,4.0,83,0.00,,,0.00,0,HR-IXP-WINDi_r2_v1.2,2013-06-13 06:27:00,
2013-06-12 23:32:00,64.5,59.2,30.00,West,271,0.0,4.0,83,0.00,,,0.00,0,HR-IXP-WINDi_r2_v1.2,2013-06-13 06:32:00,
2013-06-12 23:37:00,64.5,59.5,30.00,West,271,0.0,2.0,84,0.00,,,0.00,0,HR-IXP-WINDi_r2_v1.2,2013-06-13 06:37:00,
2013-06-12 23:42:00,64.6,59.6,30.00,West,271,0.0,1.0,84,0.00,,,0.00,0,HR-IXP-WINDi_r2_v1.2,2013-06-13 06:42:00,
2013-06-12 23:47:00,64.7,59.7,30.00,West,271,1.0,1.0,84,0.00,,,0.00,0,HR-IXP-WINDi_r2_v1.2,2013-06-13 06:47:00,
2013-06-12 23:52:00,64.8,59.5,30.00,WNW,298,2.0,2.0,83,0.00,,,0.00,0,HR-IXP-WINDi_r2_v1.2,2013-06-13 06:52:00,
2013-06-12 23:58:00,64.7,59.4,30.00,WNW,298,1.0,2.0,83,0.00,,,0.00,0,HR-IXP-WINDi_r2_v1.2,2013-06-13 06:58:00,